RH
18 21 23 26 28 33 31 30 41 42 44 54 53 52 49 44 43 41 40 39 36 33 29 29 27 25 26 30 31 29 33 38 40 42 44 43 40 46 53 54 57 59 61 65 69 73 75 76 77 79 83 88 92 96 97 98 98 94 91 91 91 91 91 89 88 89 89 88 85 86 88 87 85 84 86 88 88 87 84 81 77 75 74 74 74 74 71 69 67 66 65 64 62 58 51 44 43
16 18 21 25 25 29 29 30 44 44 47 53 44 40 38 35 36 36 37 35 28 23 20 22 24 23 26 26 24 25 29 30 31 36 40 42 40 45 51 53 56 57 58 60 62 66 70 74 76 78 80 82 84 87 92 97 99 99 97 95 94 93 92 91 90 91 91 88 84 83 85 87 86 83 84 87 87 85 83 81 79 76 74 72 72 71 71 70 68 66 65 65 65 63 57 49 43
15 18 20 24 21 24 29 34 44 44 46 47 39 36 32 30 34 37 35 29 21 18 22 25 26 25 28 26 23 25 27 26 27 31 35 39 39 40 46 51 55 57 57 57 58 60 63 67 71 76 82 86 84 81 85 93 98 99 99 97 98 97 94 94 93 90 91 91 87 84 83 85 87 86 85 85 86 85 82 79 78 77 75 72 71 70 69 69 67 67 66 65 65 64 63 56 48
13 18 21 24 22 26 32 37 43 44 43 41 40 35 30 31 31 32 26 22 19 19 24 26 27 26 27 26 23 24 27 28 28 29 32 34 33 34 40 48 52 56 58 57 57 58 59 62 64 68 77 86 88 85 85 91 96 97 97 96 98 97 96 96 95 93 92 91 89 88 87 86 87 87 86 86 87 86 83 78 75 75 75 74 74 73 71 68 66 67 66 65 64 64 65 62 53
13 18 22 24 27 31 34 39 43 41 38 37 37 30 28 29 26 24 18 20 22 20 23 25 28 25 24 25 22 23 25 27 28 31 32 31 30 31 36 42 46 52 57 57 57 58 58 59 61 64 70 79 85 86 86 90 94 96 96 97 99 98 98 97 97 97 95 93 90 88 88 88 88 86 86 88 89 88 85 81 77 75 74 76 77 76 73 70 67 67 66 64 63 64 65 63 59
16 20 23 26 28 30 35 45 42 32 30 29 29 25 24 24 22 21 17 20 22 20 21 22 24 23 24 24 22 22 24 26 27 30 31 30 30 30 33 38 41 47 53 54 56 57 58 60 61 64 67 73 78 80 85 91 92 94 95 97 98 98 99 99 97 96 95 95 93 90 89 88 88 87 88 90 91 90 88 86 85 80 76 76 77 77 75 73 71 69 66 64 62 63 65 66 63
18 22 23 26 28 31 38 41 35 26 24 21 21 22 21 21 20 20 19 18 20 19 17 20 22 24 26 25 25 24 24 25 25 27 28 28 29 30 31 35 40 43 47 50 53 54 56 60 62 65 66 69 72 73 79 88 92 93 94 96 98 98 98 98 97 94 91 94 94 95 93 89 89 89 90 91 91 91 89 87 87 84 80 78 79 78 77 77 76 73 69 66 63 61 62 63 63
17 20 22 26 29 34 37 30 26 24 22 19 19 19 20 21 19 20 20 18 18 17 15 19 22 25 27 25 26 26 25 25 26 27 26 27 28 29 31 33 38 40 43 47 50 51 53 56 59 63 64 67 70 71 74 79 86 92 96 98 99 99 98 97 97 95 91 92 94 94 92 90 91 92 92 93 93 91 89 87 85 84 84 84 84 83 82 81 79 77 74 70 67 66 63 60 61
16 20 22 26 29 32 32 24 21 21 19 18 18 18 19 19 19 19 20 18 17 16 16 19 20 25 28 25 27 26 25 26 27 27 26 28 28 29 30 31 34 36 40 44 47 49 50 52 55 59 61 64 67 70 72 73 77 82 89 95 98 98 98 97 97 97 94 92 91 93 93 93 94 94 95 95 95 94 92 90 86 84 84 86 87 87 88 86 82 81 79 75 72 70 67 65 65
12 18 20 25 28 26 24 22 20 18 17 16 16 16 17 17 17 17 18 18 16 15 17 18 19 23 25 24 25 24 25 26 27 27 27 28 30 31 32 32 32 33 36 38 40 42 45 49 52 56 59 61 64 67 68 68 69 72 75 81 88 92 95 96 96 97 96 94 92 93 95 96 96 95 96 96 96 96 95 92 88 87 86 86 87 88 90 90 86 84 82 81 77 73 69 65 66
12 15 19 24 26 21 20 20 19 18 16 14 14 14 15 15 15 15 15 15 15 15 16 17 18 19 21 22 22 22 23 24 25 27 27 29 31 33 33 33 33 33 34 34 35 36 38 43 48 53 57 59 60 63 65 64 66 67 66 68 72 78 84 89 92 94 95 96 94 94 94 95 97 97 97 98 99 98 97 95 91 91 90 88 88 88 91 92 90 87 83 83 82 79 74 68 66
13 17 20 23 23 21 20 19 18 18 15 13 12 13 15 14 13 13 14 15 15 15 15 16 17 19 21 21 20 21 22 23 24 26 28 29 30 31 31 32 32 33 34 34 34 34 35 38 43 48 53 56 57 59 61 62 63 63 64 64 65 67 71 76 80 84 88 91 92 91 89 91 93 96 98 98 99 99 99 98 96 95 93 91 90 90 91 91 92 91 87 85 84 84 82 75 69
13 17 22 24 21 21 20 18 18 18 15 13 12 13 13 13 13 13 15 16 15 15 16 17 17 19 21 21 20 21 22 24 25 27 27 27 28 29 30 31 33 34 35 36 36 36 36 38 41 45 49 52 54 55 56 58 59 60 62 64 65 67 69 70 70 72 76 81 84 83 83 86 89 91 95 97 97 97 99 98 98 98 96 94 93 93 91 89 89 91 90 88 86 86 86 82 76
13 15 20 23 21 20 20 18 18 18 15 13 11 12 12 13 14 14 14 15 15 15 15 18 18 19 20 21 22 23 24 26 27 29 28 27 28 29 31 33 34 35 36 38 39 40 41 41 42 45 48 51 53 54 54 55 55 57 59 62 64 67 70 71 70 68 69 72 75 76 77 81 84 86 88 93 95 96 97 97 98 98 97 97 96 95 93 90 87 87 89 88 86 85 85 85 83
11 12 18 23 22 21 20 17 16 16 14 12 11 11 12 14 14 14 14 15 15 16 16 18 17 18 20 22 24 25 27 27 28 28 26 26 27 28 29 30 32 35 36 38 40 43 45 46 47 48 50 52 53 53 53 54 54 54 54 57 59 62 65 68 68 67 65 65 67 70 72 75 80 84 83 84 89 92 92 94 96 96 96 97 97 96 94 92 89 87 87 87 87 86 83 83 84
9 11 18 23 21 19 17 15 15 15 13 12 11 11 13 14 14 14 15 15 16 17 17 17 17 17 18 20 22 23 23 22 23 24 24 26 27 27 27 27 29 31 34 36 39 42 45 48 51 53 54 56 56 56 54 53 53 53 52 52 53 55 57 60 62 64 63 61 60 62 65 68 73 79 80 78 80 82 83 86 90 92 92 93 95 97 95 92 90 89 90 91 91 88 85 82 82
9 12 18 19 17 15 13 13 13 13 13 12 11 11 13 15 14 15 15 15 17 17 17 18 17 17 17 18 18 18 18 17 19 21 23 25 27 27 28 28 29 32 36 38 40 42 45 48 51 55 58 60 61 62 61 59 56 55 54 53 52 51 51 51 54 57 59 60 59 58 59 61 65 69 73 74 75 74 73 75 78 80 81 85 92 95 95 95 92 89 90 93 94 91 88 86 84
10 16 18 15 15 13 11 12 11 12 12 12 12 12 13 15 15 15 16 16 17 17 17 17 16 16 17 16 16 15 15 15 16 18 19 23 26 29 30 31 33 34 37 41 43 45 47 49 51 54 58 60 63 65 65 65 63 61 59 59 58 56 54 52 50 51 52 54 56 56 56 56 57 58 60 64 68 69 67 68 68 68 69 74 85 92 92 95 96 93 91 91 91 91 90 89 90
11 16 16 14 14 12 10 11 11 11 12 11 13 13 13 15 15 14 16 18 17 18 17 16 15 15 15 14 14 12 12 14 14 13 13 17 25 29 32 34 36 37 39 42 44 47 49 52 54 56 59 62 64 66 66 67 67 66 65 64 63 62 61 59 57 54 52 51 50 50 51 52 52 52 52 52 55 59 61 62 61 61 61 63 76 87 87 90 94 96 96 93 89 87 88 89 91
11 13 15 13 12 11 11 11 11 11 11 11 12 13 13 14 13 14 17 18 18 18 17 15 14 14 14 12 11 11 11 12 12 11 10 13 21 28 31 34 36 39 41 43 45 48 52 55 59 62 65 67 68 67 67 67 68 68 68 67 66 65 64 63 62 62 60 57 53 50 48 47 48 48 48 48 47 48 51 54 57 58 57 58 68 78 82 85 88 91 95 97 92 88 86 87 88
10 11 13 12 11 12 11 11 11 11 11 11 12 13 14 13 12 14 16 18 19 17 15 13 13 13 13 12 11 12 12 12 12 12 12 12 18 24 29 33 35 39 41 43 46 48 52 57 62 66 69 70 70 68 66 66 67 69 69 69 69 68 67 66 65 65 65 63 61 59 55 51 49 47 46 45 45 44 44 46 49 53 56 58 63 70 74 77 83 87 90 93 94 91 88 86 85
10 10 11 10 11 11 11 11 11 11 11 11 12 13 15 13 13 14 15 19 19 15 14 12 12 14 14 12 12 14 14 14 14 14 15 14 14 18 25 31 35 39 43 44 46 48 51 56 61 65 67 68 69 68 67 67 67 69 70 71 71 71 70 69 68 67 66 65 64 63 62 59 56 53 50 48 47 45 44 43 43 45 50 54 59 65 67 67 71 78 85 89 91 90 90 89 86
11 11 10 10 10 11 11 11 12 11 11 12 13 14 14 14 15 15 15 17 16 14 13 12 13 14 14 13 14 15 16 17 17 18 17 15 14 16 22 30 36 41 45 47 48 48 50 54 58 61 64 66 67 68 69 70 69 70 71 72 72 71 71 71 70 69 69 67 65 64 64 62 60 58 55 53 51 49 47 46 45 43 44 47 52 57 61 62 62 66 74 80 84 87 88 90 90
12 11 9 9 10 10 12 12 12 12 12 12 13 13 13 15 16 15 15 15 15 14 14 13 14 14 15 15 16 17 18 19 19 20 17 15 19 21 24 29 35 42 45 48 49 48 49 50 53 57 60 62 65 66 67 68 69 70 70 70 70 69 68 69 69 69 69 69 68 66 66 64 62 60 57 55 53 52 50 49 47 46 44 43 45 50 55 59 61 63 68 71 74 80 83 85 87
12 12 9 9 10 11 12 13 13 13 13 13 13 14 14 14 15 16 16 15 15 15 15 15 15 15 16 16 18 19 20 21 20 18 15 16 20 23 25 28 33 39 44 47 48 48 48 48 49 51 54 57 60 63 65 66 66 67 68 68 68 68 66 65 66 66 67 67 68 68 69 68 65 62 60 57 55 53 51 50 49 48 47 44 42 44 48 53 57 60 65 68 70 75 77 77 79
12 11 10 10 11 11 13 13 12 12 13 13 13 15 14 14 15 16 16 15 16 17 17 17 17 17 17 17 19 20 21 21 20 17 14 17 20 21 23 25 26 32 38 43 46 46 45 43 44 45 47 49 52 56 59 61 62 63 64 66 67 68 67 65 65 65 65 65 65 66 67 68 67 65 63 61 59 57 53 50 49 49 49 48 45 44 43 47 50 53 58 62 65 70 73 73 77
11 11 11 11 12 12 13 13 13 13 13 13 14 15 14 15 16 17 16 15 17 17 18 18 18 18 18 19 19 20 21 22 20 16 14 17 20 20 21 22 22 25 28 33 37 38 37 36 36 37 38 40 42 46 50 53 55 57 58 60 62 65 67 68 67 67 67 67 66 65 64 64 64 65 65 65 64 61 57 53 51 50 49 49 49 47 45 44 45 47 50 54 56 60 66 69 72
11 12 13 12 12 13 14 14 14 13 13 14 15 15 16 16 18 18 16 16 17 18 18 18 19 19 19 19 19 21 21 21 18 14 14 18 21 22 22 23 24 24 23 24 26 27 28 28 28 29 30 31 33 36 40 44 49 52 54 56 57 58 60 64 67 69 71 71 70 68 67 64 61 61 62 64 65 65 63 59 56 55 52 51 50 49 48 47 45 46 48 50 51 51 54 58 60
11 14 16 15 14 15 14 14 15 15 15 15 15 18 20 20 19 18 17 18 18 17 18 18 19 19 20 20 20 21 21 19 17 13 15 19 23 26 28 31 32 28 23 20 21 21 21 22 22 24 24 24 25 26 29 32 36 41 45 50 53 55 56 58 60 63 68 72 73 72 72 69 66 63 61 61 63 64 64 63 62 59 56 54 52 51 50 48 47 47 49 51 50 50 50 51 56
12 15 17 18 19 18 16 15 16 16 16 16 16 21 24 21 19 18 18 18 18 18 19 19 20 20 21 21 21 22 20 19 17 17 23 28 29 31 34 39 40 33 23 19 21 22 23 25 27 27 26 24 23 22 22 22 24 27 31 37 43 48 52 55 56 57 60 65 70 73 74 73 71 70 68 64 63 63 62 62 61 61 60 58 56 53 51 50 48 47 49 52 52 53 55 52 54
15 20 20 20 20 19 18 17 17 16 16 16 18 23 25 22 19 19 19 19 19 19 19 20 21 21 22 22 22 22 20 20 19 20 29 35 34 37 40 40 38 31 23 21 24 26 28 30 31 31 31 31 30 28 25 22 20 19 20 24 29 35 42 47 51 52 54 57 60 65 70 72 72 72 72 71 70 68 65 62 61 60 60 59 58 56 54 51 50 48 47 50 52 52 56 56 53
20 22 22 22 20 20 20 17 16 17 16 16 20 24 25 23 21 20 20 20 20 19 20 20 21 22 23 23 23 22 21 21 20 23 30 34 35 38 39 36 32 27 24 25 25 26 29 30 29 31 32 33 33 34 33 31 28 23 18 18 20 24 31 37 42 46 50 53 55 57 61 65 69 71 72 73 74 74 72 69 66 63 60 58 57 56 55 53 50 49 48 51 53 52 53 56 54
25 22 21 22 20 21 22 18 17 17 16 17 19 23 25 24 23 21 21 21 20 20 21 21 22 23 24 24 23 22 22 22 23 27 31 31 30 29 28 27 26 25 24 24 23 25 28 29 29 31 32 33 34 36 36 37 37 33 27 22 18 18 22 28 34 40 45 49 51 52 54 57 62 66 67 68 70 73 74 73 72 69 65 61 58 57 56 55 52 49 50 52 54 54 51 53 55
28 24 22 22 20 20 22 21 18 18 19 19 20 23 26 26 25 23 22 22 21 22 22 22 23 24 25 25 24 23 23 23 26 30 31 29 26 23 24 27 27 25 23 23 24 27 30 31 32 33 34 36 38 39 40 40 40 38 37 33 27 21 19 21 26 33 39 43 47 50 51 53 55 59 61 62 63 66 68 71 75 75 71 67 63 61 59 59 57 54 54 53 53 54 52 51 54
25 25 24 23 22 21 22 22 20 21 21 21 23 26 27 27 26 24 23 23 23 23 23 24 24 25 26 25 24 24 23 25 29 32 30 27 24 22 23 25 25 23 22 24 28 30 32 33 36 37 39 40 41 43 44 44 44 42 41 42 37 29 24 22 23 27 34 40 44 46 48 50 53 55 55 56 58 60 62 65 69 73 74 73 69 66 63 61 59 56 57 58 57 55 54 53 56
24 25 24 24 24 22 23 22 21 22 23 23 25 26 28 29 28 26 24 24 24 25 25 26 26 27 27 26 25 24 25 28 31 31 28 24 21 19 19 19 20 21 24 28 30 31 32 34 36 38 41 42 44 45 45 45 47 47 46 46 44 37 32 30 28 27 29 34 41 44 46 48 50 52 52 52 53 55 58 60 62 67 71 74 74 71 67 63 60 56 53 55 57 57 56 55 57
23 25 25 25 26 23 23 22 22 23 25 26 27 27 29 30 30 28 26 26 26 26 27 27 28 28 27 27 26 26 28 31 31 27 23 18 16 16 15 15 18 22 26 28 29 31 33 35 37 39 40 42 43 45 46 46 50 53 52 51 50 45 41 37 35 34 31 30 34 39 43 44 45 47 49 50 51 52 55 56 58 62 66 69 72 73 70 66 62 58 53 50 51 53 55 53 53
24 25 25 25 26 24 22 23 24 25 26 28 27 28 31 31 30 29 27 28 28 27 28 28 29 29 29 29 28 29 31 31 29 23 17 14 13 13 13 15 19 24 26 27 29 32 35 37 38 38 38 39 40 43 46 47 50 55 56 55 53 51 49 44 40 40 37 32 29 30 33 37 40 43 45 48 50 51 52 54 54 57 60 63 65 67 68 67 64 60 57 53 50 49 52 53 50
26 26 26 27 26 26 26 26 26 26 27 29 28 29 33 31 30 29 29 30 29 29 29 30 31 31 31 30 30 31 32 30 25 19 13 11 12 11 12 17 21 24 26 28 29 32 35 37 37 37 36 37 39 41 45 48 50 54 57 56 55 53 52 50 46 44 42 38 32 29 27 29 34 40 44 46 48 50 51 51 52 52 55 58 60 61 61 62 62 61 59 55 52 50 51 54 56
27 26 26 27 26 27 28 26 27 28 29 30 28 30 34 31 29 30 30 30 30 30 31 31 32 33 33 32 32 32 31 27 22 15 11 11 11 11 14 19 22 24 26 28 30 33 36 37 37 37 36 37 39 40 43 47 50 53 55 56 56 54 53 51 48 47 46 43 40 37 34 33 34 38 43 47 49 51 52 52 53 53 53 54 56 58 59 57 56 56 56 54 52 51 51 54 59
28 26 25 26 26 27 28 27 29 29 31 31 29 31 34 32 30 31 31 31 32 32 32 34 34 34 34 34 34 33 29 24 20 15 12 11 11 12 17 20 22 24 27 29 32 35 35 36 37 38 38 38 39 40 41 45 48 50 52 54 55 54 54 51 48 47 47 47 47 45 44 42 39 39 41 45 48 50 52 53 54 55 55 55 54 55 56 56 55 53 53 51 49 52 56 57 57
30 30 26 26 27 28 28 29 31 32 33 32 30 35 37 33 32 33 33 34 34 34 34 35 36 35 35 36 35 33 29 24 20 16 13 11 11 14 18 20 23 26 29 31 34 36 36 37 37 37 39 39 39 39 39 42 46 48 51 53 55 55 56 55 52 49 48 48 49 48 48 47 45 44 42 42 44 46 49 52 53 55 55 56 57 56 54 53 53 52 52 50 48 51 57 60 59
29 29 27 27 28 29 30 30 33 36 35 32 32 37 37 34 33 35 36 36 36 36 37 37 36 37 37 37 36 34 29 24 22 18 14 11 12 15 19 21 24 27 29 30 32 34 36 37 37 36 38 39 39 38 37 38 43 48 52 54 55 56 56 58 57 53 49 48 48 48 48 49 49 48 46 45 44 44 45 47 49 51 53 55 57 57 57 54 52 51 51 50 48 48 52 56 58
28 28 28 30 29 29 31 31 33 36 34 33 34 33 34 35 35 36 37 38 39 39 40 39 37 38 38 38 38 34 29 26 24 19 14 12 12 16 20 22 25 27 27 29 30 30 32 34 36 36 37 38 37 37 36 36 39 45 51 53 54 55 55 57 57 55 52 51 51 50 49 49 49 49 49 48 46 45 43 43 44 46 49 52 55 55 56 55 54 54 53 51 47 45 45 51 55
29 30 30 31 30 31 33 32 33 34 35 37 36 32 36 39 36 38 39 39 41 42 42 43 40 40 41 41 39 35 31 29 24 18 14 13 13 17 21 24 27 27 27 29 29 28 29 30 33 36 38 38 37 37 38 38 39 43 49 52 53 54 54 55 56 56 56 56 56 56 54 53 52 52 52 51 50 48 46 44 43 43 43 45 48 51 53 54 53 54 55 53 50 44 41 44 50
28 31 32 31 31 32 33 34 33 33 38 42 37 32 40 43 37 38 42 42 43 44 45 46 43 43 44 42 40 36 32 30 24 18 15 14 14 18 22 26 27 27 27 29 29 28 28 28 31 33 35 35 37 39 39 40 42 44 47 50 55 57 57 57 59 60 60 59 58 58 56 55 54 53 52 51 50 49 48 47 45 44 43 42 43 44 47 50 52 53 54 54 53 49 43 42 45
27 30 32 30 31 31 31 34 33 35 45 46 37 34 41 48 42 38 43 46 47 48 48 49 46 45 45 43 40 36 34 31 24 18 16 15 16 18 22 26 28 28 28 30 30 28 27 28 29 31 33 34 35 36 37 39 42 44 46 49 54 58 59 59 59 58 58 57 57 57 56 56 55 54 53 52 52 51 50 50 49 48 47 45 44 44 43 45 47 49 50 51 54 54 49 46 46
28 30 32 31 33 31 30 36 38 41 50 46 37 36 42 51 46 39 44 48 50 51 50 50 48 45 44 43 40 38 36 31 24 20 17 16 17 19 22 27 29 29 29 31 30 28 27 28 29 31 32 33 34 35 36 37 38 41 44 47 51 53 55 56 57 57 56 56 57 57 57 57 56 55 54 53 52 52 52 51 51 50 49 48 47 46 45 44 45 46 46 46 48 51 52 51 49
30 31 32 34 37 37 39 44 44 45 47 43 39 40 44 47 42 40 46 49 51 51 48 47 47 45 44 43 41 40 37 32 26 21 19 18 19 20 23 28 30 30 30 31 31 29 28 28 29 31 32 32 34 35 35 36 37 38 41 45 47 48 49 51 54 56 57 58 58 58 57 57 57 55 55 54 54 53 53 53 52 51 51 50 50 49 48 47 46 46 46 44 43 45 49 50 49
32 31 34 38 41 45 49 50 49 48 44 39 40 44 47 44 40 42 46 48 48 48 46 46 46 46 45 42 42 41 38 33 28 24 21 19 20 22 25 29 32 31 31 32 32 30 29 28 29 30 31 32 33 35 35 37 38 38 39 41 44 46 47 50 53 56 57 58 58 58 58 57 57 57 57 57 57 56 56 55 54 54 53 52 52 52 50 49 48 46 45 45 43 43 45 47 46
33 33 36 41 43 48 53 53 53 52 45 40 41 46 49 44 42 44 43 44 46 46 47 48 47 47 46 44 44 43 38 34 29 26 24 21 21 23 26 29 32 32 32 33 32 32 30 28 29 29 30 31 32 34 35 36 37 37 39 40 42 43 46 50 55 57 59 60 60 60 60 60 60 60 61 60 60 59 58 58 57 57 56 55 54 53 52 52 51 49 48 47 45 44 45 46 46
35 36 38 42 43 45 50 51 50 49 50 50 47 47 47 42 42 45 44 45 47 47 49 49 49 48 47 47 46 43 39 35 31 29 27 24 22 24 27 30 33 34 33 34 33 33 32 29 28 28 28 30 31 32 34 35 36 37 39 40 41 43 45 49 54 58 60 61 63 63 63 64 63 63 63 63 63 62 62 61 61 61 60 60 58 56 55 54 53 52 51 49 48 45 44 44 46
35 38 40 41 40 42 48 51 50 54 60 57 48 46 45 42 44 45 45 48 49 50 52 51 50 50 49 50 47 43 41 36 33 31 29 27 24 24 28 30 34 35 34 34 34 34 33 30 28 28 28 29 30 31 33 34 36 37 38 40 41 44 46 48 51 55 58 60 61 63 65 66 66 66 67 67 68 68 68 67 68 68 68 67 65 62 59 57 57 55 53 52 50 49 47 45 47
37 39 39 41 43 46 49 52 56 64 68 58 47 50 51 49 50 46 45 50 52 53 54 50 50 51 51 51 48 45 43 38 36 33 31 30 26 26 29 31 34 36 36 36 36 36 34 31 28 27 28 28 30 31 32 33 34 36 37 39 41 44 46 48 51 53 56 58 59 61 63 66 67 68 69 71 72 73 74 75 76 77 76 75 74 71 66 62 60 59 57 55 53 52 51 50 50
36 38 39 44 50 53 53 56 62 69 71 63 52 52 54 54 54 50 47 52 53 53 53 51 51 53 53 52 50 48 45 41 38 35 33 32 29 27 29 31 33 36 37 37 38 37 36 33 29 27 28 28 29 31 32 33 34 35 37 38 40 43 46 48 51 53 55 57 59 60 62 64 67 69 71 72 75 76 78 79 82 85 85 84 83 81 75 69 65 63 61 58 55 54 53 53 53
37 37 39 44 50 55 56 59 63 66 73 75 64 55 54 54 53 50 49 52 53 53 53 53 53 54 54 53 51 50 47 44 41 37 35 33 32 30 30 31 33 36 38 38 38 38 37 35 31 29 28 28 29 31 32 33 34 35 36 38 40 43 46 49 51 53 55 56 57 59 61 63 66 69 71 73 75 78 81 83 86 89 91 90 90 88 84 78 73 68 65 62 59 57 56 56 57
41 41 42 46 50 55 57 57 59 62 71 81 76 63 53 48 48 48 50 52 52 51 52 54 56 56 56 55 53 51 49 47 44 40 37 34 33 33 33 33 34 36 39 39 40 41 40 37 34 30 29 28 29 30 32 34 35 35 36 38 40 43 46 49 53 55 57 58 59 60 61 63 65 67 71 74 76 79 82 86 89 91 93 93 93 91 89 85 79 73 69 67 65 63 63 62 61
43 45 47 51 55 59 59 60 62 62 66 72 75 68 53 44 46 48 50 51 50 51 53 56 58 59 59 58 55 53 51 49 47 44 39 36 34 35 35 35 35 36 38 40 41 42 42 40 37 32 30 29 29 31 32 34 35 36 37 38 41 44 46 49 53 56 58 59 61 63 65 66 67 68 71 73 76 79 82 85 88 91 94 94 93 92 91 89 85 80 74 72 71 69 66 63 60